This demonstration page uses our WeatherBlox Daily Observations layout. Learn more.

39.92423, -83.80882

Hourly Observations for May 8, 2019

Temp ( °F °C ) Dew Point ( °F °C ) Humidity (%) Winds ( mph kmh ) Pressure ( in mb ) Visibility ( mi km ) Precip ( " mm )
12:56 am 00:56 Clear 52 11.1 46 7.8 80 80 NE 9 15 30.17 1022 10 16.0934 0 0
1:56 am 01:56 Clear 51 10.6 46 7.8 83 83 ENE 10 17 30.15 1021 10 16.0934 0 0
2:56 am 02:56 Clear 50 10 45 7.2 83 83 NE 8 13 30.15 1021 10 16.0934 0 0
3:56 am 03:56 Mostly Cloudy 49 9.4 45 7.2 86 86 NE 9 15 30.15 1021 10 16.0934 0 0
4:56 am 04:56 Clear 49 9.4 44 6.7 83 83 ENE 9 15 30.15 1021 10 16.0934 0 0
5:56 am 05:56 Clear 49 9.4 44 6.7 83 83 ENE 12 19 30.15 1021 10 16.0934 0 0
6:56 am 06:56 Sunny 48 8.9 43 6.1 83 83 NE 9 15 30.17 1022 10 16.0934 0 0
7:56 am 07:56 Cloudy 50 10 44 6.7 80 80 ENE 9 15 30.17 1022 10 16.0934 0 0
8:56 am 08:56 Sunny 54 12.2 45 7.2 72 72 E 13 20 30.16 1022 10 16.0934 0 0
9:56 am 09:56 Sunny 58 14.4 48 8.9 70 70 E 10 17 30.15 1021 10 16.0934 0 0
10:56 am 10:56 Sunny 61 16.1 50 10 67 67 E 10 17 30.14 1021 10 16.0934 0 0
11:56 am 11:56 Sunny 66 18.9 53 11.7 63 63 E 8 13 30.13 1020 10 16.0934 0 0
12:56 pm 12:56 Sunny 69 20.6 54 12.2 59 59 SE 9 15 30.11 1020 10 16.0934 0 0
1:56 pm 13:56 Sunny 73 22.8 57 13.9 57 57 E 10 17 30.07 1018 10 16.0934 0 0
2:56 pm 14:56 Sunny 76 24.4 57 13.9 52 52 ESE 12 19 30.04 1017 10 16.0934 0 0
3:56 pm 15:56 Sunny 78 25.6 56 13.3 47 47 S 9 15 30.02 1017 9 14.48406 0 0
4:56 pm 16:56 Sunny 78 25.6 58 14.4 50 50 SE 8 13 30 1016 10 16.0934 0 0
5:56 pm 17:56 Sunny 78 25.6 60 15.6 54 54 ESE 13 20 29.98 1015 10 16.0934 0 0
6:56 pm 18:56 Sunny 78 25.6 60 15.6 54 54 ESE 13 20 29.96 1015 10 16.0934 0 0
7:56 pm 19:56 Sunny 76 24.4 59 15 56 56 SE 9 15 29.96 1014 10 16.0934 0 0
8:56 pm 20:56 Clear 72 22.2 59 15 64 64 SE 9 15 29.95 1014 10 16.0934 0 0
9:56 pm 21:56 Clear 70 21.1 58 14.4 66 66 SE 9 15 29.95 1014 10 16.0934 0 0
10:56 pm 22:56 Clear 69 20.6 58 14.4 68 68 SE 10 17 29.95 1014 10 16.0934 0 0
11:56 pm 23:56 Clear 68 20 58 14.4 70 70 SSE 10 17 29.94 1014 10 16.0934 0 0

Powered by AerisWeather